SHT2V EGLL-EGCC

Flight info

Callsign SHT2V
Flight time 0h 32m
Altitude 18000
Route ULTIB T420 ELVOS
Aircraft A320/M-SDE3FGHIRWY/LB1

Departure

Time 2026-05-05 12:42
Airport London Heathrow Airport (EGLL)

Arrival

Time 2026-05-05 13:14
Airport Manchester Airport (EGCC)
Time Latitude Longitude Altitude Speed Heading
2026-05-05 12:21 51.46928 -0.48650 91 ft 0 kts 360°
2026-05-05 12:33 51.46913 -0.48650 91 ft 4 kts
2026-05-05 12:34 51.46888 -0.48661 89 ft 4 kts 39°
2026-05-05 12:34 51.46876 -0.48688 88 ft 1 kts 90°
2026-05-05 12:36 51.46876 -0.48680 88 ft 2 kts 89°
2026-05-05 12:36 51.46877 -0.48640 88 ft 4 kts 89°
2026-05-05 12:37 51.46877 -0.48631 87 ft 0 kts 85°
2026-05-05 12:37 51.46877 -0.48575 87 ft 10 kts 91°
2026-05-05 12:37 51.46861 -0.48478 88 ft 8 kts 155°
2026-05-05 12:37 51.46835 -0.48471 89 ft 1 kts 181°
2026-05-05 12:38 51.46833 -0.48471 87 ft 1 kts 181°
2026-05-05 12:38 51.46832 -0.48471 91 ft 0 kts 181°
2026-05-05 12:38 51.46830 -0.48472 91 ft 1 kts 181°
2026-05-05 12:38 51.46828 -0.48472 91 ft 0 kts 181°
2026-05-05 12:39 51.46821 -0.48472 91 ft 3 kts 181°
2026-05-05 12:39 51.46766 -0.48472 90 ft 12 kts 179°
2026-05-05 12:39 51.46656 -0.48470 87 ft 17 kts 179°
2026-05-05 12:39 51.46598 -0.48470 88 ft 2 kts 180°
2026-05-05 12:40 51.46592 -0.48470 88 ft 0 kts 180°
2026-05-05 12:40 51.46586 -0.48470 88 ft 4 kts 180°
2026-05-05 12:40 51.46533 -0.48470 89 ft 9 kts 180°
2026-05-05 12:40 51.46483 -0.48445 90 ft 8 kts 121°
2026-05-05 12:41 51.46478 -0.48360 89 ft 6 kts 89°
2026-05-05 12:41 51.46479 -0.48276 89 ft 11 kts 90°
2026-05-05 12:41 51.46480 -0.47743 86 ft 86 kts 90°
2026-05-05 12:41 51.46485 -0.46446 89 ft 143 kts 90°
2026-05-05 12:42 51.46481 -0.44703 488 ft 156 kts 88°
2026-05-05 12:42 51.46487 -0.42951 1247 ft 158 kts 84°
2026-05-05 12:42 51.46710 -0.41183 1803 ft 172 kts 60°
2026-05-05 12:42 51.47490 -0.39563 2164 ft 195 kts 48°
2026-05-05 12:43 51.48418 -0.37818 2609 ft 216 kts 48°
2026-05-05 12:43 51.49443 -0.35869 3122 ft 240 kts 49°
2026-05-05 12:43 51.50543 -0.33764 3998 ft 249 kts 50°
2026-05-05 12:43 51.51671 -0.31591 4717 ft 256 kts 51°
2026-05-05 12:44 51.52516 -0.29094 4941 ft 258 kts 70°
2026-05-05 12:44 51.53118 -0.26362 4999 ft 258 kts 67°
2026-05-05 12:44 51.54126 -0.24000 5147 ft 262 kts 40°
2026-05-05 12:44 51.55734 -0.22636 6134 ft 266 kts 15°
2026-05-05 12:45 51.57590 -0.22480 7052 ft 273 kts 349°
2026-05-05 12:45 51.59423 -0.23317 8011 ft 276 kts 346°
2026-05-05 12:45 51.61317 -0.24059 8729 ft 282 kts 343°
2026-05-05 12:45 51.63129 -0.25313 9609 ft 285 kts 332°
2026-05-05 12:46 51.64289 -0.26313 10177 ft 289 kts 331°
2026-05-05 12:46 51.66757 -0.28571 10678 ft 318 kts 330°
2026-05-05 12:46 51.68667 -0.30392 11350 ft 325 kts 329°
2026-05-05 12:46 51.69982 -0.31663 11842 ft 329 kts 329°
2026-05-05 12:47 51.71956 -0.33581 12621 ft 333 kts 329°
2026-05-05 12:47 51.73678 -0.35255 13284 ft 337 kts 329°
2026-05-05 12:47 51.75698 -0.37220 14044 ft 341 kts 329°
2026-05-05 12:47 51.77741 -0.39203 14730 ft 345 kts 329°
2026-05-05 12:48 51.79806 -0.41207 15390 ft 348 kts 329°
2026-05-05 12:48 51.81899 -0.43237 16063 ft 352 kts 329°
2026-05-05 12:48 51.84014 -0.45286 16739 ft 356 kts 328°
2026-05-05 12:48 51.86149 -0.47357 17409 ft 360 kts 328°
2026-05-05 12:49 51.88310 -0.49456 17857 ft 364 kts 328°
2026-05-05 12:49 51.90474 -0.51561 17964 ft 360 kts 328°
2026-05-05 12:49 51.92606 -0.53636 17971 ft 356 kts 328°
2026-05-05 12:49 51.94722 -0.55699 17974 ft 355 kts 328°
2026-05-05 12:50 51.96835 -0.57763 17977 ft 354 kts 328°
2026-05-05 12:50 51.98940 -0.59821 17972 ft 354 kts 328°
2026-05-05 12:50 52.01056 -0.61892 17975 ft 354 kts 328°
2026-05-05 12:50 52.03158 -0.63951 17979 ft 353 kts 328°
2026-05-05 12:51 52.05265 -0.66016 17973 ft 353 kts 328°
2026-05-05 12:51 52.07364 -0.68078 17972 ft 353 kts 328°
2026-05-05 12:51 52.09471 -0.70154 17984 ft 353 kts 327°
2026-05-05 12:51 52.11566 -0.72221 17975 ft 353 kts 327°
2026-05-05 12:52 52.13672 -0.74297 17983 ft 353 kts 327°
2026-05-05 12:52 52.15762 -0.76351 17990 ft 353 kts 328°
2026-05-05 12:52 52.17878 -0.78435 17988 ft 353 kts 327°
2026-05-05 12:52 52.19985 -0.80514 17999 ft 353 kts 327°
2026-05-05 12:53 52.22081 -0.82588 18001 ft 353 kts 327°
2026-05-05 12:53 52.24181 -0.84668 17999 ft 353 kts 327°
2026-05-05 12:53 52.26251 -0.86724 17998 ft 353 kts 327°
2026-05-05 12:53 52.28372 -0.88835 18005 ft 353 kts 327°
2026-05-05 12:54 52.32559 -0.93005 18022 ft 352 kts 327°
2026-05-05 12:54 52.34653 -0.95096 18019 ft 352 kts 327°
2026-05-05 12:54 52.36745 -0.97185 18012 ft 352 kts 327°
2026-05-05 12:55 52.38810 -0.99249 18014 ft 352 kts 327°
2026-05-05 12:55 52.40901 -1.01340 18020 ft 352 kts 327°
2026-05-05 12:55 52.42987 -1.03427 18025 ft 352 kts 327°
2026-05-05 12:55 52.45081 -1.05525 18030 ft 352 kts 327°
2026-05-05 12:56 52.47167 -1.07617 18036 ft 352 kts 327°
2026-05-05 12:56 52.49252 -1.09707 18037 ft 351 kts 327°
2026-05-05 12:56 52.51339 -1.11803 18043 ft 351 kts 327°
2026-05-05 12:56 52.53412 -1.13892 18046 ft 351 kts 326°
2026-05-05 12:57 52.55494 -1.15993 18047 ft 351 kts 326°
2026-05-05 12:57 52.57573 -1.18095 18041 ft 350 kts 326°
2026-05-05 12:57 52.59642 -1.20183 18047 ft 350 kts 326°
2026-05-05 12:57 52.61727 -1.22283 18054 ft 350 kts 326°
2026-05-05 12:58 52.63805 -1.24379 18055 ft 350 kts 326°
2026-05-05 12:58 52.65884 -1.26480 18053 ft 350 kts 326°
2026-05-05 12:58 52.67957 -1.28583 18054 ft 350 kts 326°
2026-05-05 12:58 52.70028 -1.30686 18056 ft 350 kts 326°
2026-05-05 12:59 52.72101 -1.32790 18054 ft 350 kts 326°
2026-05-05 12:59 52.74162 -1.34885 18031 ft 350 kts 326°
2026-05-05 12:59 52.76231 -1.36992 18025 ft 350 kts 326°
2026-05-05 13:00 52.80353 -1.41198 17766 ft 343 kts 326°
2026-05-05 13:00 52.82375 -1.43269 17333 ft 339 kts 326°
2026-05-05 13:01 52.88295 -1.49340 16124 ft 329 kts 326°
2026-05-05 13:01 52.90233 -1.51327 15729 ft 326 kts 326°
2026-05-05 13:01 52.92157 -1.53308 15343 ft 323 kts 326°
2026-05-05 13:01 52.93981 -1.55188 14971 ft 321 kts 326°
2026-05-05 13:02 52.95769 -1.57033 14602 ft 319 kts 326°
2026-05-05 13:02 52.97599 -1.58921 14231 ft 318 kts 326°
2026-05-05 13:02 52.99524 -1.60906 13841 ft 316 kts 326°
2026-05-05 13:02 53.01387 -1.62828 13417 ft 314 kts 326°
2026-05-05 13:03 53.03215 -1.64718 13038 ft 312 kts 326°
2026-05-05 13:03 53.05042 -1.66699 12645 ft 308 kts 320°
2026-05-05 13:03 53.06552 -1.69189 12259 ft 305 kts 309°
2026-05-05 13:03 53.07920 -1.71870 11886 ft 303 kts 309°
2026-05-05 13:04 53.09267 -1.74490 11513 ft 302 kts 309°
2026-05-05 13:04 53.10626 -1.77122 11135 ft 301 kts 309°
2026-05-05 13:04 53.11968 -1.79718 10913 ft 294 kts 309°
2026-05-05 13:04 53.13288 -1.82272 10682 ft 288 kts 310°
2026-05-05 13:05 53.14591 -1.84796 10314 ft 286 kts 310°
2026-05-05 13:05 53.15879 -1.87294 9685 ft 283 kts 309°
2026-05-05 13:05 53.17137 -1.89741 9263 ft 272 kts 310°
2026-05-05 13:05 53.18335 -1.92080 8904 ft 261 kts 310°
2026-05-05 13:06 53.19496 -1.94350 8582 ft 251 kts 310°
2026-05-05 13:06 53.20629 -1.96569 8278 ft 251 kts 310°
2026-05-05 13:06 53.21769 -1.98797 8215 ft 253 kts 310°
2026-05-05 13:06 53.22868 -2.01076 8111 ft 253 kts 302°
2026-05-05 13:07 53.23575 -2.03747 7998 ft 253 kts 285°
2026-05-05 13:07 53.23762 -2.06657 7581 ft 252 kts 268°
2026-05-05 13:07 53.23649 -2.09602 7196 ft 256 kts 267°
2026-05-05 13:07 53.23535 -2.12580 6908 ft 256 kts 267°
2026-05-05 13:08 53.23422 -2.15565 6585 ft 257 kts 267°
2026-05-05 13:08 53.23312 -2.18528 6327 ft 255 kts 267°
2026-05-05 13:08 53.23203 -2.21466 5966 ft 253 kts 268°
2026-05-05 13:08 53.23095 -2.24389 5427 ft 251 kts 268°
2026-05-05 13:09 53.22987 -2.27270 4977 ft 247 kts 269°
2026-05-05 13:09 53.22881 -2.30063 4586 ft 242 kts 269°
2026-05-05 13:09 53.22774 -2.32864 4243 ft 243 kts 269°
2026-05-05 13:09 53.22667 -2.35685 4010 ft 241 kts 269°
2026-05-05 13:10 53.22563 -2.38422 3923 ft 232 kts 269°
2026-05-05 13:10 53.22459 -2.41061 3816 ft 224 kts 269°
2026-05-05 13:10 53.22436 -2.43589 3696 ft 212 kts 285°
2026-05-05 13:10 53.23089 -2.45622 3601 ft 194 kts 320°
2026-05-05 13:11 53.24245 -2.46550 3492 ft 182 kts 353°
2026-05-05 13:11 53.25515 -2.46285 3036 ft 192 kts 24°
2026-05-05 13:11 53.26528 -2.44811 2585 ft 196 kts 48°
2026-05-05 13:11 53.27396 -2.43019 2157 ft 201 kts 48°
2026-05-05 13:12 53.28287 -2.41186 1808 ft 200 kts 48°
2026-05-05 13:12 53.29126 -2.39454 1563 ft 186 kts 48°
2026-05-05 13:12 53.29921 -2.37817 1276 ft 176 kts 48°
2026-05-05 13:12 53.30664 -2.36286 1024 ft 163 kts 47°
2026-05-05 13:13 53.31356 -2.34865 800 ft 153 kts 47°
2026-05-05 13:13 53.32010 -2.33516 563 ft 145 kts 48°
2026-05-05 13:13 53.32626 -2.32243 375 ft 138 kts 48°
2026-05-05 13:13 53.33232 -2.30991 266 ft 139 kts 48°
2026-05-05 13:14 53.33792 -2.29844 235 ft 111 kts 52°
2026-05-05 13:14 53.34177 -2.29046 233 ft 63 kts 51°
2026-05-05 13:14 53.34405 -2.28621 230 ft 46 kts 36°
2026-05-05 13:14 53.34604 -2.28470 233 ft 27 kts 20°
2026-05-05 13:15 53.34779 -2.28266 233 ft 35 kts 51°
2026-05-05 13:15 53.34907 -2.27999 234 ft 21 kts 50°
2026-05-05 13:15 53.35015 -2.28065 232 ft 14 kts 338°
2026-05-05 13:15 53.35123 -2.28185 232 ft 24 kts 329°
2026-05-05 13:16 53.35302 -2.28181 233 ft 28 kts
2026-05-05 13:16 53.35493 -2.28127 234 ft 21 kts 26°
2026-05-05 13:16 53.35622 -2.27920 233 ft 29 kts 48°
2026-05-05 13:16 53.35800 -2.27864 233 ft 31 kts
2026-05-05 13:17 53.35973 -2.27864 233 ft 17 kts 320°